Flag for U.S.A. Weather past 2 weeks in Kailua-Kona, Hawaii, U.S.A.

Now
79 °F

Clear.


Feels Like: 81 °F
Forecast: 68 / 77 °F
Wind: 9 mph from South

Location: Keahole Airport

Current Time: Mar 26, 2015 at 7:25:31 PM

Latest Report: Mar 26, 2015 at 6:53 PM


Visibility: 9 mi

Pressure: 30.06 "Hg

Humidity: 69%

Dew point: 68 °F

Location of Kailua-KonaLocation

Historic Weather in Kailua-Kona — Graph

°F

Kailua-Kona temperature yesterday

Maximum temperature yesterday: 85 °F (at 3:53 PM)
Minimum temperature yesterday: 72 °F (at 5:53 AM)
Average temperature yesterday: 78 °F

Past Weeks' High & Low Weather Summary

 TemperatureHumidityPressure
High85 °F (Mar 25, 3:53 PM)87% (Mar 13, 2:53 AM)30.14 "Hg (Mar 13, 2:53 AM)
Low64 °F (Mar 13, 3:53 AM)35% (Mar 15, 9:53 AM)29.88 "Hg (Mar 12, 4:53 AM)
Average76 °F62%30.03 "Hg
* Reported Mar 11 5:53 PM — Mar 26 5:53 PM, Kailua-Kona, Weather by CustomWeather, © 2015

Note: Actual official high and low records may vary slightly from our data, if they occured in-between our weather recording intervals... More about our weather records

Advertising

Kailua-Kona weather history for previous 24 hours

 ConditionsComfort  
Time TempWeatherWind HumidityBarometerVisibility
5:53 PM
Thu, Mar 26
80 °FPartly sunny.8 mph67%30.04 "Hg10 mi
4:53 PM81 °FMostly cloudy.9 mph62%30.02 "Hg10 mi
3:53 PM82 °FSunny.12 mph60%30.01 "Hg10 mi
2:53 PM82 °FBroken clouds.15 mph63%30.01 "Hg10 mi
1:53 PM83 °FPartly sunny.14 mph61%30.02 "Hg10 mi
12:53 PM83 °FPartly sunny.12 mph61%30.05 "Hg10 mi
11:53 AM81 °FOvercast.10 mph62%30.07 "Hg10 mi
10:53 AM80 °FOvercast.7 mph62%30.09 "Hg10 mi
9:53 AM81 °FSunny.8 mph60%30.09 "Hg10 mi
8:53 AM80 °FSunny.7 mph64%30.08 "Hg10 mi
7:53 AM77 °FSunny.3 mph69%30.08 "Hg10 mi
6:53 AM73 °FSunny.5 mph71%30.06 "Hg10 mi
5:53 AM73 °FPassing clouds.5 mph74%30.04 "Hg10 mi
4:53 AM73 °FPassing clouds.6 mph76%30.03 "Hg10 mi
3:53 AM73 °FPassing clouds.5 mph76%30.04 "Hg10 mi
2:53 AM75 °FPassing clouds.5 mph71%30.04 "Hg10 mi
1:53 AM74 °FPassing clouds.7 mph74%30.06 "Hg10 mi
12:53 AM74 °FPassing clouds.5 mph74%30.09 "Hg10 mi
11:53 PM
Wed, Mar 25
75 °FClear.No wind71%30.10 "Hg10 mi
10:53 PM77 °FClear.5 mph60%30.10 "Hg10 mi
9:53 PM77 °FPassing clouds.No wind69%30.09 "Hg10 mi
8:53 PM77 °FClear.5 mph71%30.06 "Hg10 mi
7:53 PM78 °FClear.12 mph69%30.03 "Hg10 mi
Weather by CustomWeather, © 2015

See weather overviewHow to use our weather pages